MST,Max TemperatureF,Mean TemperatureF,Min TemperatureF,Max Dew PointF,MeanDew PointF,Min DewpointF,Max Humidity, Mean Humidity, Min Humidity, Max Sea Level PressureIn, Mean Sea Level PressureIn, Min Sea Level PressureIn, Max VisibilityMiles, Mean VisibilityMiles, Min VisibilityMiles, Max Wind SpeedMPH, Mean Wind SpeedMPH, Max Gust SpeedMPH,PrecipitationIn, CloudCover, Events, WindDirDegrees
2013-1-1,15,5,-5,10,2,-9,95,86,80,30.67,30.56,30.42,10,4,0,9,1,,0.00,4,Fog,316
2013-1-2,5,-3,-11,0,-8,-18,100,83,70,30.79,30.56,30.43,6,2,0,5,0,,0.00,2,Fog-Snow,235
2013-1-3,3,-4,-11,-4,-11,-17,84,77,65,30.83,30.61,30.44,6,2,0,6,1,,0.00,2,Fog,342
2013-1-4,1,-6,-14,-4,-13,-20,92,77,66,30.80,30.55,30.42,5,2,0,6,1,,0.00,4,Fog-Snow,311
2013-1-5,5,-3,-11,-2,-8,-16,92,81,73,30.82,30.54,30.33,5,3,1,5,1,,0.00,4,Snow,297
2013-1-6,10,0,-9,3,-7,-15,92,82,71,30.59,30.30,30.10,4,2,0,8,1,,0.00,2,Fog,250
2013-1-7,17,2,-11,11,-4,-15,87,81,72,30.52,30.32,30.16,5,2,0,9,2,,0.00,4,Fog,321
2013-1-8,28,23,18,23,18,13,86,78,74,30.47,30.36,30.25,5,3,2,9,2,,0.00,8,,194
2013-1-9,28,18,8,23,16,7,96,89,78,30.48,30.20,29.84,4,2,0,6,1,,0.00,3,Fog,261
2013-1-10,43,31,19,30,22,18,93,84,45,29.87,29.63,29.53,10,4,0,23,9,29,0.01,8,Fog-Snow,343
2013-1-11,23,18,12,18,15,9,93,85,68,30.09,29.81,29.60,10,5,2,9,5,,0.00,8,Snow,337
2013-1-12,12,5,-2,9,1,-7,92,83,70,30.37,30.14,29.96,10,6,2,10,5,,0.00,6,Snow,329
2013-1-13,3,-7,-17,-3,-11,-22,92,81,74,30.58,30.31,30.11,10,4,0,4,1,,0.00,4,Fog-Snow,221
2013-1-14,0,-9,-18,-5,-14,-26,83,75,69,30.72,30.54,30.24,10,5,0,5,0,,0.00,6,Snow,312
2013-1-15,14,8,1,9,2,-6,85,79,72,30.82,30.71,30.41,10,5,2,5,0,,0.00,8,Snow,303
2013-1-16,19,8,-4,12,4,-8,100,84,74,30.86,30.70,30.61,7,2,0,5,0,,0.00,5,Fog-Snow,269
2013-1-17,8,1,-6,3,-2,-10,92,83,72,30.95,30.73,30.54,4,2,0,5,1,,0.00,5,Fog-Snow,215
2013-1-18,10,2,-7,3,-4,-11,92,81,70,30.85,30.63,30.48,4,2,0,6,2,,0.00,5,Fog-Snow,261
2013-1-19,6,-2,-11,2,-9,-15,100,84,69,30.90,30.64,30.50,3,2,0,5,0,,0.00,5,Fog-Snow,305
2013-1-20,5,-4,-14,-2,-10,-17,92,83,72,30.89,30.72,30.50,2,1,0,4,1,,0.00,2,Fog,299
2013-1-21,8,-2,-13,1,-10,-17,92,82,71,30.87,30.68,30.45,,,,6,1,,0.00,4,,282
2013-1-22,7,-2,-11,0,-7,-14,92,82,72,30.79,30.61,30.37,,,,5,0,,0.00,4,Snow,180
2013-1-23,10,0,-9,4,-7,-15,87,82,76,30.67,30.50,30.29,2,2,2,8,3,,0.00,3,,301
2013-1-24,32,20,7,31,24,3,100,90,80,30.48,30.32,30.24,2,1,0,10,2,,0.26,8,Fog-Rain-Snow,258
2013-1-25,34,32,30,34,31,28,100,94,87,30.37,30.25,30.14,3,1,0,8,2,,0.00,8,Fog,188
2013-1-26,37,34,32,34,32,30,100,95,86,30.15,29.95,29.83,2,1,0,8,2,,0.00,7,Fog,150
2013-1-27,34,30,23,34,29,22,100,93,87,29.96,29.81,29.72,10,2,0,21,7,26,0.34,8,Fog-Rain-Snow,350
2013-1-28,27,23,19,22,19,16,100,87,72,30.05,29.97,29.89,10,5,0,13,1,,0.01,8,Fog-Snow,58
2013-1-29,28,23,18,23,21,16,96,87,75,30.25,29.99,29.82,10,4,0,16,6,,0.06,8,Fog-Snow,121
2013-1-30,35,28,23,29,24,19,100,90,76,30.28,30.20,30.14,10,3,1,9,2,,0.10,8,Snow,351
2013-1-31,36,33,30,30,29,25,92,83,76,30.37,30.33,30.28,10,9,6,8,3,,0.00,8,,55